Home   Weather   Manhattan   Past weeks

Flag for USA Past Weather in Manhattan, Kansas, USA — Yesterday and Last 2 Weeks

Now
55 °F

Clear.


Feels Like: 54 °F
Forecast: 47 / 69 °F
Wind: 5 mph from North

Location: Manhattan Municipal Airport

Current Time: Sep 29, 2016 at 12:06:19 AM

Latest Report: Sep 28, 2016 at 10:52 PM


Visibility: 10 mi

Pressure: 30.30 "Hg

Humidity: 74%

Dew Point: 47 °F

Location of ManhattanLocation

Past Weather in Manhattan — Graph

°F

Manhattan Temperature Yesterday

Maximum temperature yesterday: 70 °F (at 2:52 PM)
Minimum temperature yesterday: 53 °F (at 4:52 AM)
Average temperature yesterday: 61 °F

High & Low Weather Summary for the Past Weeks

 TemperatureHumidityPressure
High94 °F (Sep 19, 3:52 PM)100% (Sep 16, 10:52 PM)30.31 "Hg (Sep 16, 10:52 PM)
Low44 °F (Sep 26, 6:52 AM)30% (Sep 26, 1:52 PM)29.84 "Hg (Sep 22, 3:52 PM)
Average71 °F75%30.00 "Hg
* Reported Sep 13 10:52 PM — Sep 28 10:52 PM, Manhattan, Weather by CustomWeather, © 2016

Note: Actual official high and low records may vary slightly from our data, if they occured in-between our weather recording intervals... More about our weather records

Advertising

Manhattan Weather History for the Previous 24 Hours

Scroll right to see more
 ConditionsComfort  
Time TempWeatherWind HumidityBarometerVisibility
10:52 PM
Wed, Sep 28
55 °FClear.5 mph74%30.30 "Hg10 mi
9:52 PM55 °FClear.7 mph74%30.28 "Hg10 mi
8:52 PM57 °FClear.6 mph72%30.25 "Hg10 mi
7:52 PM60 °FClear.3 mph62%30.22 "Hg10 mi
6:52 PM65 °FSunny.7 mph51%30.21 "Hg10 mi
5:52 PM69 °FSunny.13 mph42%30.18 "Hg10 mi
4:52 PM70 °FSunny.13 mph42%30.17 "Hg10 mi
3:52 PM70 °FSunny.12 mph44%30.15 "Hg10 mi
2:52 PM70 °FSunny.10 mph44%30.14 "Hg10 mi
1:52 PM69 °FSunny.12 mph45%30.14 "Hg10 mi
12:52 PM67 °FSunny.14 mph49%30.14 "Hg10 mi
11:52 AM66 °FSunny.12 mph45%30.13 "Hg10 mi
10:52 AM65 °FSunny.13 mph47%30.13 "Hg10 mi
9:52 AM62 °FSunny.12 mph52%30.10 "Hg10 mi
8:52 AM59 °FSunny.12 mph67%30.07 "Hg10 mi
7:52 AM57 °FSunny.3 mph74%30.03 "Hg10 mi
6:52 AM54 °FClear.No wind86%29.98 "Hg10 mi
5:52 AM56 °FClear.No wind84%29.93 "Hg10 mi
4:52 AM53 °FClear.No wind89%29.91 "Hg10 mi
3:52 AM54 °FClear.3 mph93%29.89 "Hg10 mi
2:52 AM55 °FClear.No wind93%29.89 "Hg10 mi
1:52 AM56 °FClear.No wind93%29.87 "Hg10 mi
12:52 AM57 °FClear.No wind90%29.87 "Hg10 mi
Weather by CustomWeather, © 2016

See weather overviewHow to use our weather pages